TimeEDT,TemperatureF,Dew PointF,Humidity,Sea Level PressureIn,VisibilityMPH,Wind Direction,Wind SpeedMPH,Gust SpeedMPH,PrecipitationIn,Events,Conditions,WindDirDegrees,DateUTC
12:53 AM,46.0,46.0,100,30.13,10.0,Calm,Calm,-,N/A,,Clear,0,2013-09-19 04:53:00
1:53 AM,45.0,45.0,100,30.14,10.0,Calm,Calm,-,N/A,,Clear,0,2013-09-19 05:53:00
2:53 AM,44.1,44.1,100,30.14,8.0,NNW,3.5,-,N/A,,Clear,330,2013-09-19 06:53:00
3:53 AM,42.1,42.1,100,30.13,8.0,Calm,Calm,-,N/A,,Clear,0,2013-09-19 07:53:00
4:20 AM,42.8,42.8,100,30.13,2.5,Calm,Calm,-,N/A,,Clear,0,2013-09-19 08:20:00
4:28 AM,42.8,42.8,100,30.13,9.0,Calm,Calm,-,N/A,,Clear,0,2013-09-19 08:28:00
4:53 AM,43.0,43.0,100,30.14,7.0,Calm,Calm,-,N/A,,Clear,0,2013-09-19 08:53:00
5:53 AM,43.0,42.1,97,30.13,10.0,Calm,Calm,-,N/A,,Clear,0,2013-09-19 09:53:00
6:53 AM,42.1,41.0,96,30.14,10.0,Calm,Calm,-,N/A,,Clear,0,2013-09-19 10:53:00
7:53 AM,46.9,46.0,97,30.14,10.0,Calm,Calm,-,N/A,,Clear,0,2013-09-19 11:53:00
8:53 AM,54.0,48.9,83,30.13,10.0,South,3.5,-,N/A,,Clear,170,2013-09-19 12:53:00
9:53 AM,60.1,52.0,75,30.13,10.0,Calm,Calm,-,N/A,,Clear,0,2013-09-19 13:53:00
10:53 AM,61.0,54.0,78,30.13,10.0,SE,6.9,-,N/A,,Clear,140,2013-09-19 14:53:00
11:53 AM,63.0,54.0,72,30.11,10.0,SE,8.1,-,N/A,,Clear,140,2013-09-19 15:53:00
12:53 PM,66.0,55.0,68,30.09,10.0,SE,12.7,-,N/A,,Clear,130,2013-09-19 16:53:00
1:53 PM,69.1,55.0,61,30.06,10.0,SE,12.7,-,N/A,,Clear,140,2013-09-19 17:53:00
2:53 PM,71.1,53.1,53,30.05,10.0,SE,11.5,-,N/A,,Clear,140,2013-09-19 18:53:00
3:53 PM,72.0,53.1,51,30.03,10.0,SSE,10.4,-,N/A,,Clear,150,2013-09-19 19:53:00
4:53 PM,72.0,52.0,49,30.02,10.0,SE,4.6,-,N/A,,Clear,130,2013-09-19 20:53:00
5:53 PM,70.0,53.1,55,30.03,10.0,NE,3.5,-,N/A,,Clear,50,2013-09-19 21:53:00
6:53 PM,62.1,55.9,80,30.04,10.0,Calm,Calm,-,N/A,,Clear,0,2013-09-19 22:53:00
7:53 PM,57.9,57.0,97,30.04,10.0,Calm,Calm,-,N/A,,Clear,0,2013-09-19 23:53:00
8:53 PM,57.0,55.9,96,30.05,10.0,Calm,Calm,-,N/A,,Clear,0,2013-09-20 00:53:00
9:53 PM,55.9,54.0,93,30.06,10.0,Calm,Calm,-,N/A,,Clear,0,2013-09-20 01:53:00
10:53 PM,53.1,53.1,100,30.05,10.0,Calm,Calm,-,N/A,,Clear,0,2013-09-20 02:53:00
11:53 PM,52.0,52.0,100,30.05,10.0,Calm,Calm,-,N/A,,Clear,0,2013-09-20 03:53:00